South Lake Tahoe, CA

4:00 PM PDT on May 23, 2018 (GMT -0700)
Lake Tahoe

Weather History for KTVL - August, 2014

Change the Weather History Date:

Thursday, August 21, 2014

  Actual Average Record
Temperature  
Mean Temperature 61 °F 60 °F  
Max Temperature 79 °F 80 °F 91 °F (1988)
Min Temperature 43 °F 40 °F 28 °F (1994)
Degree Days  
Heating Degree Days 4 6  
Month to date heating degree days 50 94  
Since 1 June heating degree days 274 542  
Since 1 July heating degree days 64 232  
Cooling Degree Days 0 0  
Month to date cooling degree days 8 7  
Year to date cooling degree days 95 26  
Since 1 June cooling degree days 95 26  
Growing Degree Days 11 (Base 50)    
Moisture  
Dew Point 38 °F    
Average Humidity 48    
Maximum Humidity 76    
Minimum Humidity 20    
Precipitation  
Precipitation 0.00 in - 0.53 in (2003)
Month to date precipitation 0.98  
Year to date precipitation 13.88  
Sea Level Pressure  
Sea Level Pressure 30.00 in    
Wind  
Wind Speed 3 mph (SSW)    
Max Wind Speed 20 mph    
Max Gust Speed 27 mph    
Visibility 10 miles    
Events      
T = Trace of Precipitation, MM = Missing Value Source: NWS Daily Summary

Daily Weather History Graph

Daily Weather History Graph

Search for Another Location

Airport or City:

Astronomy

Aug. 21, 2014 Rise Set
Actual Time 6:19 AM PDT 7:46 PM PDT
Civil Twilight 5:51 AM PDT 8:14 PM PDT
Nautical Twilight 5:17 AM PDT 8:47 PM PDT
Astronomical Twilight 4:41 AM PDT 9:23 PM PDT
Moon 2:54 AM PDT (8/21) 5:17 PM PDT (8/21)
Length of Visible Light 14h 23m
Length of Day
13h 27m
Waning Crescent, 13% of the Moon is Illuminated
Aug 21
Waning Crescent
Aug 25
New
Sep 2
First Quarter
Sep 8
Full
Sep 15
Last Quarter

Hourly Weather History & Observations

Time (PDT) Temp. Windchill Dew Point Humidity Pressure Visibility Wind Dir Wind Speed Gust Speed Precip Events Conditions
12:53 AM 53.1 °F - 43.0 °F 69% 29.97 in 10.0 mi Calm Calm - N/A   Clear
1:53 AM 51.1 °F - 41.0 °F 68% 29.97 in 10.0 mi Calm Calm - N/A   Clear
2:53 AM 50.0 °F - 41.0 °F 71% 29.98 in 10.0 mi Calm Calm - N/A   Clear
3:53 AM 48.0 °F - 39.9 °F 74% 29.99 in 10.0 mi Calm Calm - N/A   Clear
4:53 AM 46.0 °F - 39.0 °F 76% 29.99 in 10.0 mi Calm Calm - N/A   Clear
5:53 AM 44.1 °F 42.5 °F 37.9 °F 79% 30.01 in 10.0 mi South 3.5 mph - N/A   Clear
6:53 AM 45.0 °F - 37.9 °F 76% 30.03 in 10.0 mi Calm Calm - N/A   Clear
7:53 AM 52.0 °F - 39.9 °F 63% 30.04 in 10.0 mi South 3.5 mph - N/A   Clear
8:53 AM 62.1 °F - 42.1 °F 48% 30.01 in 10.0 mi Calm Calm - N/A   Clear
9:53 AM 70.0 °F - 30.0 °F 23% 30.00 in 10.0 mi SSW 6.9 mph - N/A   Clear
10:53 AM 73.9 °F - 41.0 °F 30% 30.00 in 10.0 mi Variable 5.8 mph - N/A   Clear
11:53 AM 75.0 °F - 37.0 °F 25% 29.99 in 10.0 mi Calm Calm - N/A   Clear
12:53 PM 77.0 °F - 33.1 °F 20% 29.99 in 10.0 mi SSW 12.7 mph 23.0 mph N/A   Clear
1:53 PM 78.1 °F - 37.0 °F 23% 29.99 in 10.0 mi North - - N/A   Clear
2:53 PM 78.1 °F - 36.0 °F 22% 29.99 in 10.0 mi SSW 8.1 mph - N/A   Clear
3:53 PM 77.0 °F - 37.0 °F 24% 29.99 in 10.0 mi Variable 6.9 mph 21.9 mph N/A   Clear
4:53 PM 75.0 °F - 39.0 °F 27% 30.00 in 10.0 mi SSW 12.7 mph 16.1 mph N/A   Clear
5:53 PM 73.0 °F - 37.9 °F 28% 30.01 in 10.0 mi South 9.2 mph 18.4 mph N/A   Clear
6:53 PM 71.1 °F - 37.9 °F 30% 30.02 in 10.0 mi South 8.1 mph - N/A   Clear
7:53 PM 66.0 °F - 39.9 °F 38% 30.03 in 10.0 mi South 4.6 mph - N/A   Clear
8:53 PM 63.0 °F - 39.0 °F 41% 30.02 in 10.0 mi SW 3.5 mph - N/A   Clear
9:53 PM 59.0 °F - 39.0 °F 48% 30.01 in 10.0 mi South 6.9 mph - N/A   Clear
10:53 PM 55.9 °F - 39.0 °F 53% 30.00 in 10.0 mi SSW 4.6 mph - N/A   Clear
11:53 PM 52.0 °F - 39.0 °F 61% 30.01 in 10.0 mi Calm Calm - N/A   Clear